Wind_Speed
15 16 16 17 18 20 21 22 21 20 19 17 16 16 17 18 19 20 21 21 22 23 24 25 25 25 25 24 23 21 19 18 19 20 23 27 32 36 39 40 39 38 38 38 39 40 40 40 39 39 39 39 40 40 41 42 44 46 47 48 48 48 48 48 48 48 47 45 43
13 13 13 13 14 16 17 17 16 15 13 13 13 14 15 17 19 20 20 21 22 22 23 24 25 26 27 27 28 27 25 23 21 19 18 19 22 27 33 37 39 40 40 41 40 39 38 37 36 35 36 37 38 39 40 42 44 45 47 48 49 50 51 51 51 51 49 46 43
13 12 12 11 11 12 12 12 12 11 10 11 11 13 14 16 17 18 19 20 21 22 23 24 24 25 26 27 28 29 29 28 26 23 20 18 17 19 23 28 32 35 36 37 36 35 34 33 33 32 32 33 33 34 35 36 38 39 40 41 42 44 45 47 48 47 45 42 39
14 13 13 13 12 11 11 11 11 10 10 10 11 12 13 15 16 17 18 19 21 22 23 24 24 25 25 26 27 28 29 29 28 26 23 20 18 18 19 22 24 27 29 30 30 30 30 30 31 31 31 31 31 31 31 31 31 32 32 32 33 34 36 38 39 38 37 35 34
14 14 14 14 14 13 12 11 10 10 9 10 10 11 12 13 14 16 18 20 21 23 24 25 25 25 25 26 26 27 27 26 25 23 21 20 19 19 19 20 21 23 23 24 25 25 26 27 27 28 28 28 28 28 28 28 29 29 28 28 27 28 30 31 32 32 31 31 31
16 15 15 15 14 13 12 11 10 9 8 8 8 8 8 8 8 10 13 16 20 23 25 26 26 25 25 25 25 26 25 25 23 22 21 19 19 18 18 18 18 19 19 20 20 21 22 23 23 23 23 23 24 25 25 26 26 26 26 26 26 27 27 29 29 30 30 31 32
21 20 19 17 15 15 14 13 12 11 10 9 8 7 6 4 3 2 3 7 12 18 23 25 26 25 23 23 23 24 25 25 25 24 22 19 17 16 16 16 16 16 17 18 19 20 21 21 21 21 22 22 24 24 25 25 25 25 25 26 26 26 27 28 29 30 31 32 33
24 23 22 20 19 18 17 17 16 16 16 16 16 15 13 12 10 8 6 4 3 8 15 21 24 25 24 23 22 23 24 25 25 25 23 19 17 16 17 17 18 19 19 20 20 21 21 20 21 21 22 24 25 25 26 26 26 26 26 26 27 28 29 30 31 33 34 34 35
26 24 23 22 21 20 20 21 21 21 21 20 20 19 18 17 16 15 14 13 10 6 7 12 17 21 22 21 20 20 21 23 23 22 20 20 19 20 20 22 23 23 23 23 23 22 21 21 21 22 24 25 26 26 27 27 27 28 28 28 28 30 31 32 33 34 35 35 35
26 24 24 24 23 22 21 19 19 19 18 18 18 18 18 19 20 19 19 17 14 12 10 8 8 9 11 12 12 13 15 18 18 18 17 19 21 23 24 25 26 26 27 26 25 23 22 22 22 23 24 25 25 26 27 27 28 28 28 29 30 31 32 33 33 33 32 32 32
25 25 25 25 25 22 19 16 14 14 14 13 13 13 14 15 18 19 18 15 13 12 12 12 11 10 9 8 6 6 8 9 10 12 14 18 22 24 25 25 26 27 27 26 25 23 22 23 24 25 25 25 25 26 26 26 26 26 27 29 30 32 33 33 33 32 31 30 30
27 26 25 26 25 23 21 19 17 16 14 13 12 11 10 11 12 14 15 13 11 9 9 10 10 9 8 7 7 7 7 6 6 7 9 12 15 18 20 21 22 22 22 21 20 20 22 25 26 26 26 26 26 25 25 25 25 25 27 29 31 33 33 33 32 31 31 30 30
27 27 27 26 25 24 22 21 20 19 17 16 14 13 11 9 9 10 12 12 12 10 9 8 8 7 6 5 5 5 6 6 6 5 5 5 6 8 9 11 12 12 13 13 14 18 22 25 27 27 26 25 25 25 25 25 25 26 27 29 32 33 33 32 31 30 30 29 28
27 27 27 26 25 24 23 22 21 20 19 18 16 14 12 11 9 9 10 11 12 13 12 11 10 9 8 6 6 5 5 5 5 5 6 6 5 5 5 5 5 6 7 9 12 16 20 23 24 24 23 23 24 24 25 25 26 27 28 30 31 31 31 30 29 29 29 28 26
27 27 26 26 25 25 24 23 22 21 20 19 18 16 15 13 11 11 10 11 11 11 11 11 11 10 9 8 6 5 5 5 5 5 6 6 6 6 6 6 5 5 5 6 8 11 13 15 16 17 17 19 20 21 22 22 23 24 26 27 28 28 28 27 27 27 28 29 28
26 26 25 25 25 24 24 23 21 21 20 19 18 17 16 15 14 13 12 12 11 9 8 8 8 8 8 7 7 5 4 3 3 4 4 5 5 6 6 6 6 6 5 5 5 4 4 5 7 9 11 12 14 15 15 15 15 16 18 20 22 23 24 25 25 26 27 27 27
25 25 24 24 23 23 22 21 20 19 18 17 16 15 15 14 14 13 13 13 12 11 10 8 7 6 6 6 6 6 5 4 2 1 1 1 2 3 4 5 5 5 5 5 5 4 3 3 4 5 7 9 11 12 12 11 11 11 12 14 16 18 19 20 21 23 24 24 24
24 24 23 23 22 21 21 20 19 18 17 16 15 14 13 12 11 11 11 11 10 10 10 9 8 7 6 5 5 5 5 5 5 4 4 4 3 3 2 2 3 3 4 5 4 4 4 4 4 5 6 9 11 12 13 12 12 13 14 15 16 17 18 18 18 19 20 20 21
24 23 23 22 22 21 20 19 18 18 17 16 15 14 13 12 11 10 9 8 8 8 8 8 8 8 8 7 7 7 6 6 6 6 6 6 6 6 6 5 6 7 8 8 9 9 9 9 8 8 8 10 12 13 14 14 15 16 16 17 18 19 19 19 19 18 18 18 18
23 23 23 22 21 20 19 19 18 17 16 16 15 14 13 12 11 10 9 8 8 8 8 8 8 8 7 8 8 8 8 8 8 7 7 7 8 8 9 9 9 9 10 10 11 11 12 13 13 13 13 13 14 15 15 15 15 15 16 16 17 18 18 19 19 19 18 18 18
24 23 23 22 21 20 19 19 18 17 16 15 14 14 13 12 12 11 11 10 9 9 9 8 8 8 8 8 8 8 9 9 9 9 9 9 9 10 10 11 12 13 13 13 13 13 14 15 15 16 16 17 18 18 19 19 18 17 16 15 15 16 16 17 18 19 20 20 20
25 24 23 23 22 21 20 18 17 16 16 15 15 14 13 13 13 12 12 11 10 10 10 9 9 9 9 9 9 9 9 9 10 10 11 11 11 12 12 13 14 15 16 17 17 17 17 17 17 17 18 18 19 21 22 23 23 22 21 19 18 17 17 17 18 18 19 20 22
25 25 24 23 22 21 20 19 18 17 16 16 15 15 14 14 14 13 12 12 11 11 11 10 10 10 10 10 10 10 9 9 10 10 11 12 13 14 14 15 16 17 18 19 19 20 20 20 20 19 19 19 20 21 23 24 25 26 26 25 24 23 22 21 20 19 19 20 21
25 24 24 23 23 22 21 20 19 19 18 18 17 17 16 16 15 14 14 13 12 12 12 11 11 11 11 11 11 11 11 11 10 10 10 10 11 13 14 16 17 18 18 19 19 19 20 20 20 20 21 21 21 22 23 24 25 26 27 27 27 27 26 25 24 22 21 20 20
24 24 23 23 22 22 21 21 21 20 20 20 19 18 18 18 17 16 16 15 14 13 13 12 12 11 11 12 12 12 12 12 12 12 12 11 11 11 12 13 15 16 18 18 18 19 19 19 20 20 21 21 21 22 22 23 24 25 26 26 27 28 28 27 27 25 23 21 20
23 23 23 22 22 21 21 21 21 21 20 20 20 19 19 19 19 18 17 16 16 15 14 13 13 12 12 12 12 12 12 13 13 13 14 13 13 13 13 13 13 14 15 16 17 18 18 19 19 20 21 21 22 22 22 23 23 24 25 25 26 27 27 27 27 27 26 25 23
23 22 22 22 21 21 21 21 20 20 20 20 20 20 20 19 19 19 18 18 17 17 16 15 15 15 14 14 13 13 13 13 13 13 14 14 15 15 15 15 15 15 16 16 17 17 18 19 20 20 21 22 22 22 23 23 23 24 24 25 26 26 27 27 27 27 27 27 27
22 22 22 22 21 21 21 21 21 20 20 20 20 20 20 19 19 19 18 18 18 18 17 17 17 17 17 17 16 16 15 15 14 14 14 14 14 14 15 15 16 16 17 17 18 18 19 20 20 21 22 23 23 24 24 24 24 24 25 25 25 26 26 27 27 28 28 28 28
23 23 23 22 22 22 22 22 22 22 22 21 21 20 20 20 19 19 19 19 19 19 19 19 19 19 19 18 18 18 18 17 17 16 16 15 15 14 14 15 15 16 16 17 18 19 19 20 21 22 23 24 25 25 25 25 25 25 25 25 26 26 26 27 27 27 28 28 29
24 24 24 24 24 24 24 24 24 23 23 23 22 22 21 21 21 21 20 20 20 20 20 20 20 19 19 19 19 19 19 19 19 19 19 18 18 17 16 16 16 16 17 17 18 18 19 20 21 22 23 24 25 26 26 27 27 27 27 27 27 27 27 27 27 27 27 28 28
24 24 24 24 24 24 24 24 24 24 24 24 23 23 23 23 23 23 23 22 22 22 21 21 20 20 20 20 20 20 20 20 20 20 20 20 20 20 20 19 19 19 19 19 19 19 19 20 20 21 22 23 25 26 26 27 28 28 28 28 28 28 28 28 28 28 28 28 28
24 24 24 24 24 24 24 24 24 24 24 24 24 24 24 24 24 24 24 24 24 23 23 23 23 22 22 22 21 21 21 21 21 21 21 21 21 21 21 21 21 21 21 21 21 21 21 21 21 22 22 23 24 25 26 27 27 28 29 29 29 29 29 29 29 29 29 28 29
24 24 24 24 24 24 24 24 23 23 23 23 23 23 24 24 24 24 24 24 24 24 24 25 25 24 24 24 24 23 23 23 22 22 22 22 22 22 22 22 22 22 22 23 23 23 23 23 23 24 24 24 24 25 25 26 27 27 28 29 29 29 30 30 30 30 30 30 29
24 24 24 24 24 24 23 23 23 23 23 23 23 23 23 23 23 23 23 24 24 24 24 24 24 24 24 24 24 24 24 24 24 23 23 23 23 22 22 22 22 22 22 23 23 24 24 25 25 25 26 26 26 26 26 26 27 27 27 28 28 29 29 30 30 30 30 30 30
25 25 25 25 24 24 24 24 24 24 23 23 23 23 23 23 23 23 23 23 23 22 22 22 22 22 22 23 23 23 24 24 24 24 24 24 24 24 23 23 22 22 22 22 22 23 23 24 25 26 26 27 28 28 28 28 28 28 28 28 28 28 28 29 29 30 30 31 31
26 26 26 26 25 25 25 25 25 25 25 25 25 25 25 25 25 25 24 24 23 23 23 23 22 22 22 22 22 23 23 24 24 24 24 24 25 25 24 24 23 23 22 22 22 22 23 23 24 25 26 27 28 28 29 29 29 30 30 29 29 29 29 29 29 29 30 30 30
26 26 26 26 26 26 27 27 27 27 27 27 27 27 27 27 27 27 27 27 27 27 26 26 26 26 25 25 24 24 24 24 24 24 24 25 25 25 25 25 24 24 23 23 23 23 23 23 23 24 25 26 27 28 28 29 30 30 30 30 30 30 30 30 29 29 29 29 30
26 26 26 26 26 26 27 27 27 27 27 28 28 28 29 29 29 30 30 30 31 31 31 31 30 30 30 29 28 28 27 27 27 27 26 26 26 26 26 26 25 25 24 24 24 24 23 23 23 23 24 25 26 27 28 28 29 30 30 30 31 31 31 31 31 30 30 30 29
25 25 25 25 25 25 25 26 26 26 27 27 27 28 28 29 29 30 30 31 31 32 32 32 33 33 33 33 33 32 32 31 31 31 30 30 29 29 29 28 27 27 26 25 25 24 24 24 23 23 24 24 25 26 27 28 28 29 29 30 30 30 31 31 31 31 31 31 30
23 23 23 23 23 23 23 24 24 24 25 25 26 26 27 27 28 28 29 29 30 30 31 32 32 33 33 34 34 34 34 34 34 34 34 33 33 33 32 32 31 30 29 28 27 26 25 24 24 23 23 24 25 26 27 27 28 28 29 29 29 29 30 30 30 30 31 31 31
20 20 20 20 21 21 21 21 21 22 22 23 23 24 24 25 25 26 26 27 28 28 29 29 30 31 32 32 33 33 34 34 34 35 35 35 35 35 35 35 35 34 34 33 31 30 28 26 25 23 22 22 23 25 26 26 27 28 28 28 28 28 29 29 30 30 30 30 30
Wind_Direction
213 220 226 231 236 241 244 247 249 252 256 260 264 268 271 273 272 269 266 264 260 256 251 248 246 245 246 245 243 237 231 225 222 222 221 219 215 216 220 223 227 231 234 235 234 232 231 230 230 229 229 230 232 234 235 236 236 238 239 241 243 244 245 245 245 246 245 242 241
204 213 221 228 236 241 244 246 248 252 257 263 267 269 271 270 268 263 259 258 258 255 251 247 244 243 244 245 246 245 242 238 233 229 226 225 224 221 220 220 222 224 227 229 229 229 230 230 229 228 228 228 229 231 233 234 235 235 236 237 238 240 241 240 240 240 239 237 239
193 200 208 216 227 235 239 242 245 251 258 262 264 265 265 265 264 261 256 253 253 253 251 247 244 243 243 244 245 246 247 246 244 239 233 230 232 235 232 226 223 222 223 225 228 230 232 233 233 232 231 230 230 231 232 233 234 234 234 234 234 234 234 233 233 232 231 233 237
186 193 199 203 206 209 213 218 223 229 237 243 248 253 257 261 264 265 262 257 253 251 250 248 245 244 244 244 245 245 246 245 245 242 237 233 233 238 241 240 234 229 228 228 231 234 237 239 238 238 237 236 236 236 236 235 234 233 233 232 231 230 228 227 226 226 228 232 237
177 182 188 191 194 194 193 192 194 200 209 218 226 232 239 246 253 258 260 258 254 251 250 249 247 246 246 246 246 245 243 240 238 236 234 234 233 234 235 238 240 239 236 235 236 238 241 242 243 244 245 245 246 246 245 241 237 234 232 232 230 228 226 225 226 228 232 236 240
156 159 163 170 177 178 174 170 170 175 183 194 201 207 215 225 235 242 248 251 250 249 249 248 247 247 247 247 245 243 239 234 230 229 230 231 230 229 229 231 236 241 244 244 244 245 246 247 250 253 256 258 259 258 255 250 244 239 236 234 232 230 227 227 229 232 235 239 242
133 133 134 142 151 152 149 146 144 143 141 137 130 123 117 115 125 171 219 233 239 241 242 242 241 238 235 231 229 228 228 228 227 227 227 227 227 228 232 236 242 249 254 256 254 252 250 250 253 258 261 263 262 259 256 253 250 247 244 241 239 238 236 234 234 235 237 239 241
118 121 124 128 130 131 131 129 126 121 115 108 101 96 91 88 85 85 90 106 169 214 225 230 230 227 221 214 210 209 212 215 217 218 221 224 232 239 245 249 254 257 260 261 257 252 248 248 251 255 257 257 255 252 248 245 245 246 245 245 244 244 243 241 240 240 240 240 241
105 110 114 117 119 117 114 111 109 105 102 98 95 92 90 88 85 83 81 81 86 114 173 204 216 220 221 220 218 213 208 203 199 200 209 224 237 245 250 252 253 254 256 256 252 247 244 244 247 249 250 248 245 242 239 235 235 236 238 241 243 243 241 237 236 237 238 238 239
90 93 98 103 105 105 102 98 96 95 95 94 92 90 89 87 85 83 80 78 78 82 95 123 161 188 204 216 223 221 212 202 194 194 207 226 237 243 245 245 245 246 246 245 240 237 237 238 240 241 241 239 236 234 233 231 231 232 235 239 243 243 240 237 234 233 233 234 236
78 78 81 85 90 95 98 95 93 93 94 94 92 88 83 80 81 82 83 83 81 76 76 84 96 109 122 133 148 169 184 189 190 200 216 230 237 238 236 233 232 234 235 233 229 229 232 236 237 236 235 233 232 232 233 234 237 238 240 242 244 245 244 242 240 238 238 240 241
70 70 71 73 79 86 91 92 91 91 91 92 91 88 82 75 77 83 89 94 95 89 79 75 80 89 102 116 130 142 152 161 180 201 218 229 233 233 231 228 227 228 228 228 227 228 231 235 237 236 235 233 233 234 236 240 242 244 244 245 246 247 248 249 248 247 248 249 250
65 65 65 67 71 76 80 81 80 80 79 81 82 84 85 86 85 87 92 97 104 108 104 92 87 90 101 119 144 161 168 171 170 173 181 199 219 228 231 232 234 234 235 235 233 232 233 235 237 238 238 237 237 237 239 241 243 244 244 244 245 247 250 252 253 253 253 253 253
61 60 61 62 64 66 68 68 68 68 68 69 72 74 78 83 82 78 76 80 90 99 103 102 99 96 97 106 128 148 162 169 170 168 168 174 184 196 209 223 239 248 251 249 243 239 237 238 239 240 240 241 241 242 243 244 245 245 245 245 246 248 250 252 254 254 254 253 252
57 56 56 56 57 57 58 58 58 58 58 59 60 60 61 62 58 53 48 50 61 75 86 91 92 90 86 85 96 118 143 161 173 181 185 185 185 188 193 199 209 220 231 240 243 242 240 239 239 240 241 243 244 245 247 249 251 251 250 249 249 250 252 253 254 255 255 255 255
53 53 52 51 51 52 52 52 52 52 52 52 51 50 49 47 44 39 34 32 34 39 47 59 69 74 73 68 66 73 94 129 157 175 185 190 195 199 203 204 207 206 201 194 196 207 227 240 240 242 244 245 245 247 251 255 259 259 258 256 255 255 255 256 257 258 259 259 259
51 52 51 50 50 50 50 51 51 50 50 49 48 47 45 43 39 35 31 27 24 22 21 21 26 35 45 50 49 45 42 43 53 73 123 191 210 215 219 222 222 218 211 200 189 182 189 217 242 253 253 247 244 246 252 260 266 270 270 269 267 265 264 263 263 263 263 263 263
52 53 53 52 51 50 50 50 50 50 49 48 47 46 45 42 39 34 30 25 21 17 14 10 5 2 0 3 11 16 15 11 6 1 356 351 340 322 299 283 281 278 277 274 267 258 247 239 239 242 242 240 240 243 249 256 260 263 266 268 270 272 273 273 273 272 271 269 269
50 51 52 52 51 49 48 47 46 46 45 44 43 42 41 39 36 33 29 24 18 13 8 4 360 354 349 344 342 342 344 346 346 345 342 338 332 325 317 310 301 296 294 293 292 290 287 282 272 257 244 239 239 241 244 248 251 253 255 258 262 266 270 272 274 274 274 274 273
46 46 46 47 47 45 43 41 40 39 38 37 36 36 35 34 31 29 26 23 16 9 1 356 352 348 344 339 335 332 330 329 328 328 328 325 320 314 308 302 296 290 285 282 281 282 283 283 277 268 258 251 248 247 247 248 249 250 252 255 258 260 262 265 266 267 267 267 269
44 43 43 42 42 41 39 37 35 33 32 31 30 29 27 25 23 21 20 18 13 7 360 353 348 344 339 335 332 328 325 322 319 317 315 313 310 305 301 298 294 289 285 281 277 274 272 271 269 265 262 259 257 257 257 257 257 257 258 259 261 262 263 263 263 262 260 259 259
43 42 42 41 40 40 38 36 34 32 30 28 27 25 22 19 17 15 13 10 6 1 356 352 347 344 341 337 333 330 326 320 315 310 307 305 302 299 297 295 292 291 291 291 288 283 278 275 273 271 269 267 266 265 263 263 263 263 263 264 264 266 267 268 267 266 263 261 259
42 41 40 40 39 38 37 36 34 32 31 29 28 25 23 20 18 14 10 6 1 356 352 348 345 342 339 336 333 330 327 323 318 312 306 300 297 295 294 293 293 294 296 296 295 293 290 288 285 281 277 274 270 267 265 263 263 263 263 264 265 266 268 269 269 270 270 269 268
40 39 38 37 36 35 34 33 32 30 30 29 28 26 25 23 21 18 14 9 4 359 355 350 346 341 337 333 328 325 322 320 317 314 308 302 297 293 291 291 292 294 296 297 297 297 295 292 289 285 281 277 273 269 266 264 262 261 261 262 263 265 267 268 268 267 267 269 271
37 37 36 34 33 31 30 29 28 26 26 25 24 23 23 22 21 19 16 13 10 6 2 358 352 346 341 335 330 325 321 317 315 312 309 305 300 295 291 287 286 287 288 290 291 292 292 291 288 286 283 280 277 274 271 269 266 264 263 262 263 264 265 266 267 266 265 265 266
34 33 32 31 29 28 27 25 24 23 21 20 19 18 17 16 15 13 12 10 10 8 6 2 358 355 351 346 340 334 328 322 318 314 311 308 305 301 296 291 288 285 284 283 283 284 284 285 285 284 283 281 280 278 276 274 272 270 268 267 266 266 267 267 267 268 267 267 267
30 29 28 27 25 24 23 22 20 19 17 15 14 12 11 9 7 5 4 3 2 1 360 358 357 356 355 352 349 344 340 335 329 324 318 314 310 307 304 300 297 293 289 286 285 283 283 282 282 282 281 280 280 279 277 276 275 273 272 271 270 270 270 270 270 270 269 269 269
26 25 23 21 20 19 18 16 15 14 13 11 10 8 6 3 1 359 357 355 354 352 351 350 350 350 349 348 346 345 343 341 338 334 329 324 320 315 311 307 304 300 297 295 292 290 287 286 284 283 282 281 280 279 278 277 276 275 274 273 273 272 272 272 271 271 271 270 270
21 20 18 17 15 14 13 11 11 10 8 7 5 3 1 358 356 354 352 350 348 347 346 346 345 343 342 341 340 339 338 336 335 333 331 329 326 323 319 315 311 307 304 300 297 295 292 290 288 287 285 284 282 280 279 278 277 276 275 274 274 274 273 273 272 272 272 271 270
17 15 14 13 11 10 9 8 7 6 5 3 1 359 357 355 353 352 350 349 348 347 345 344 342 340 338 337 335 333 332 330 328 327 325 324 323 322 321 319 317 314 311 307 303 300 296 294 291 289 288 286 284 283 281 280 279 278 276 276 275 275 274 274 273 273 272 271 271
14 13 12 10 9 8 7 6 5 3 2 0 359 357 355 354 353 353 352 351 349 348 345 343 341 340 338 335 333 331 329 326 324 322 320 319 318 317 317 316 316 315 313 311 308 305 302 299 296 293 291 289 287 285 283 282 281 280 278 277 276 276 275 275 274 273 273 272 271
13 12 11 9 9 8 7 5 4 3 1 359 358 356 355 355 355 354 353 351 350 348 346 344 343 341 339 337 335 333 330 328 325 322 320 318 316 314 313 312 312 312 311 310 309 307 305 303 301 298 296 293 291 289 287 285 284 282 280 279 278 277 276 276 275 274 273 272 271
14 12 11 10 9 8 7 6 4 3 1 360 358 357 356 356 355 354 353 352 351 350 348 346 345 343 342 340 338 336 334 331 329 326 323 320 318 315 313 311 310 309 308 307 306 306 305 304 303 301 300 297 295 293 291 289 287 285 283 282 280 279 278 277 276 275 274 273 271
14 12 11 10 9 8 7 6 5 3 2 0 359 359 358 356 355 354 353 353 352 351 350 348 347 345 344 342 340 338 336 334 332 330 328 325 323 320 318 315 313 311 309 307 305 304 303 302 301 301 300 299 298 297 295 294 292 289 287 285 283 281 280 278 277 276 275 273 272
13 11 10 9 8 6 5 4 3 2 1 360 359 359 358 357 355 354 353 352 352 351 349 347 346 345 343 342 340 338 337 335 333 332 331 329 326 324 322 320 319 316 313 310 307 304 302 301 300 299 298 298 297 297 296 295 294 293 291 289 287 285 282 280 279 277 276 275 273
11 9 8 6 5 4 3 2 1 359 359 358 357 357 356 355 354 352 351 350 348 347 345 344 343 341 340 339 338 337 336 334 333 332 330 329 327 326 324 323 322 321 318 315 312 309 306 303 301 299 297 296 295 295 295 294 294 293 292 291 290 288 286 284 282 280 278 276 275
8 7 5 4 2 1 0 359 358 357 357 356 355 355 354 353 351 350 349 347 346 344 343 342 341 339 338 337 337 336 335 333 332 330 329 328 327 325 324 323 323 322 321 319 317 314 312 309 305 302 299 296 295 293 293 292 292 292 291 291 290 289 288 287 285 283 280 278 277
6 4 3 1 360 359 358 357 356 355 354 354 353 352 351 350 349 348 347 346 345 344 343 341 341 340 338 337 336 335 334 333 331 330 329 328 327 326 324 323 323 322 322 320 319 317 316 313 310 306 302 299 297 295 293 292 291 290 290 289 289 289 288 288 287 285 283 281 279
3 1 360 358 357 355 354 354 353 352 351 350 349 349 348 347 347 347 346 345 343 342 341 340 340 339 338 337 336 335 334 333 333 332 331 330 329 328 327 325 324 323 322 321 320 319 318 316 313 310 306 303 300 298 296 295 293 291 290 289 288 288 287 287 286 286 284 283 281
360 358 356 354 352 351 350 349 348 348 347 346 345 344 344 344 344 343 342 341 340 339 338 337 337 336 336 335 334 334 333 333 333 333 333 332 331 330 329 328 327 325 324 323 321 320 319 318 316 313 310 306 303 301 299 298 296 294 292 291 290 289 288 287 286 285 285 284 282
356 354 352 350 349 347 346 345 344 343 342 341 341 340 340 339 338 337 336 336 335 334 333 333 332 332 332 331 331 330 330 330 331 331 331 331 331 331 330 330 329 328 327 326 325 324 323 321 319 317 314 309 305 303 301 300 299 297 295 294 293 293 292 291 289 287 285 285 283
Height
1411 1413 1415 1416 1417 1418 1419 1419 1419 1419 1419 1419 1418 1418 1419 1420 1421 1422 1422 1422 1423 1424 1425 1426 1427 1429 1431 1432 1433 1435 1437 1438 1439 1441 1442 1443 1443 1445 1447 1450 1452 1453 1454 1455 1456 1457 1458 1459 1461 1461 1462 1463 1464 1466 1467 1467 1468 1470 1471 1472 1473 1474 1475 1477 1478 1480 1482 1485 1487
1410 1412 1414 1416 1417 1417 1418 1418 1418 1418 1418 1418 1418 1418 1419 1420 1420 1421 1421 1421 1421 1422 1423 1425 1426 1428 1429 1431 1432 1434 1435 1436 1438 1439 1441 1442 1443 1444 1446 1448 1450 1452 1453 1454 1455 1456 1456 1457 1458 1459 1460 1461 1462 1464 1465 1466 1467 1468 1469 1470 1471 1472 1473 1475 1477 1479 1481 1483 1485
1410 1412 1413 1415 1416 1417 1417 1418 1417 1417 1417 1418 1418 1418 1419 1419 1420 1420 1421 1421 1421 1421 1422 1423 1425 1427 1428 1429 1431 1432 1433 1435 1436 1437 1439 1440 1442 1444 1445 1447 1448 1450 1451 1452 1453 1453 1454 1455 1456 1457 1458 1459 1460 1462 1463 1464 1465 1466 1467 1468 1469 1470 1471 1472 1475 1477 1479 1481 1483
1409 1410 1412 1413 1414 1415 1416 1416 1416 1416 1416 1417 1417 1418 1419 1419 1419 1419 1420 1420 1420 1421 1422 1422 1424 1426 1427 1428 1429 1431 1432 1433 1434 1436 1437 1439 1441 1443 1445 1446 1447 1448 1449 1450 1451 1452 1452 1453 1454 1455 1456 1457 1459 1460 1461 1462 1463 1464 1465 1466 1467 1468 1469 1471 1473 1475 1477 1478 1479
1408 1410 1411 1412 1413 1413 1413 1412 1412 1412 1413 1414 1415 1416 1417 1418 1418 1419 1419 1419 1420 1420 1421 1422 1423 1425 1426 1427 1428 1429 1430 1432 1433 1435 1437 1439 1440 1442 1443 1445 1446 1447 1447 1448 1449 1450 1451 1452 1453 1453 1455 1456 1457 1457 1459 1460 1461 1462 1463 1464 1465 1466 1467 1469 1471 1473 1474 1475 1476
1407 1409 1410 1411 1412 1412 1412 1411 1412 1412 1412 1413 1414 1415 1415 1416 1416 1417 1417 1419 1419 1420 1421 1421 1423 1424 1425 1427 1427 1428 1429 1431 1432 1434 1436 1438 1439 1441 1442 1443 1444 1445 1446 1447 1447 1448 1449 1450 1451 1452 1453 1454 1455 1456 1457 1458 1459 1460 1461 1462 1463 1464 1466 1467 1469 1470 1472 1472 1473
1407 1409 1410 1411 1411 1411 1411 1411 1411 1412 1412 1413 1414 1415 1415 1415 1416 1416 1417 1417 1419 1420 1421 1422 1423 1424 1426 1427 1427 1428 1429 1430 1431 1433 1435 1437 1438 1439 1440 1442 1443 1444 1445 1446 1447 1447 1448 1449 1450 1451 1452 1453 1454 1455 1456 1457 1458 1459 1460 1460 1461 1462 1463 1464 1466 1467 1468 1469 1470
1408 1409 1410 1410 1411 1411 1411 1411 1411 1412 1412 1413 1414 1415 1416 1416 1417 1417 1417 1417 1418 1420 1421 1423 1424 1425 1426 1427 1427 1428 1429 1429 1431 1432 1434 1435 1436 1438 1439 1440 1442 1443 1444 1445 1446 1447 1447 1448 1449 1450 1451 1452 1453 1454 1455 1456 1457 1457 1458 1459 1460 1461 1461 1462 1463 1464 1465 1466 1467
1411 1411 1411 1411 1412 1412 1411 1411 1411 1412 1412 1414 1415 1416 1417 1417 1417 1418 1418 1418 1419 1420 1420 1422 1423 1425 1426 1427 1427 1428 1429 1429 1430 1432 1433 1434 1435 1437 1438 1439 1440 1442 1443 1444 1445 1446 1447 1447 1448 1449 1450 1451 1452 1453 1454 1455 1456 1457 1457 1458 1458 1459 1460 1460 1461 1462 1462 1462 1463
1413 1413 1412 1412 1412 1412 1411 1411 1412 1413 1414 1415 1416 1417 1417 1418 1418 1419 1419 1420 1421 1421 1421 1421 1422 1423 1425 1426 1427 1428 1429 1430 1430 1431 1432 1433 1435 1436 1437 1438 1440 1441 1442 1443 1444 1445 1445 1446 1447 1448 1449 1450 1451 1452 1453 1454 1455 1455 1456 1456 1457 1457 1457 1457 1458 1459 1459 1460 1461
1413 1413 1413 1412 1412 1412 1412 1412 1413 1414 1415 1416 1417 1417 1418 1418 1419 1419 1420 1421 1422 1422 1422 1422 1423 1423 1424 1425 1426 1427 1428 1429 1430 1431 1432 1433 1434 1436 1437 1437 1438 1439 1441 1442 1442 1443 1444 1445 1446 1447 1447 1448 1449 1450 1451 1452 1453 1453 1454 1454 1455 1455 1455 1455 1455 1456 1456 1457 1458
1413 1413 1413 1412 1412 1412 1413 1413 1415 1416 1417 1417 1417 1418 1418 1419 1420 1421 1421 1422 1422 1423 1424 1424 1424 1424 1425 1425 1426 1426 1427 1428 1429 1430 1432 1432 1433 1434 1435 1436 1437 1437 1438 1439 1440 1441 1442 1443 1444 1445 1446 1447 1447 1448 1449 1450 1451 1451 1452 1452 1452 1452 1452 1452 1453 1453 1454 1455 1456
1414 1414 1413 1413 1413 1414 1414 1415 1416 1417 1417 1417 1418 1418 1419 1420 1421 1422 1422 1423 1423 1424 1425 1425 1425 1425 1426 1426 1427 1427 1427 1428 1428 1429 1431 1432 1433 1433 1434 1435 1436 1436 1437 1438 1438 1439 1440 1441 1442 1443 1444 1444 1445 1446 1447 1447 1448 1448 1449 1450 1450 1450 1451 1451 1451 1451 1452 1452 1453
1416 1416 1416 1415 1415 1415 1416 1417 1417 1418 1418 1418 1419 1419 1420 1421 1422 1423 1424 1424 1424 1425 1425 1426 1426 1426 1427 1427 1427 1428 1428 1429 1429 1430 1430 1431 1431 1432 1433 1434 1435 1436 1436 1437 1437 1438 1439 1440 1441 1441 1442 1442 1443 1443 1444 1445 1446 1446 1447 1447 1447 1448 1448 1449 1449 1449 1450 1450 1451
1417 1417 1417 1417 1416 1417 1417 1418 1419 1420 1420 1420 1421 1422 1422 1423 1424 1425 1425 1425 1425 1426 1426 1426 1427 1427 1427 1427 1428 1428 1428 1429 1430 1430 1430 1431 1431 1431 1432 1432 1433 1434 1435 1436 1437 1438 1438 1439 1439 1440 1440 1441 1441 1442 1442 1443 1444 1444 1445 1445 1445 1446 1447 1447 1447 1447 1447 1447 1448
1418 1418 1418 1418 1418 1418 1420 1421 1421 1422 1422 1422 1423 1424 1424 1425 1425 1426 1426 1426 1426 1426 1427 1427 1427 1427 1427 1428 1428 1428 1429 1429 1430 1430 1431 1431 1431 1432 1432 1432 1433 1433 1434 1435 1436 1437 1438 1439 1439 1439 1439 1440 1440 1441 1442 1442 1442 1442 1443 1443 1444 1444 1445 1445 1445 1445 1445 1445 1446
1420 1420 1420 1420 1420 1421 1422 1423 1423 1424 1424 1425 1425 1425 1426 1426 1427 1427 1427 1427 1427 1427 1427 1427 1428 1428 1428 1428 1428 1429 1429 1429 1430 1430 1430 1431 1431 1431 1432 1432 1433 1433 1434 1434 1435 1436 1437 1437 1438 1438 1439 1439 1439 1439 1440 1440 1441 1441 1441 1442 1442 1442 1443 1443 1443 1443 1443 1443 1443
1423 1423 1423 1423 1423 1424 1424 1425 1425 1426 1426 1426 1427 1427 1427 1427 1428 1428 1428 1428 1429 1429 1429 1429 1429 1429 1429 1429 1429 1429 1429 1429 1430 1430 1430 1430 1431 1431 1431 1432 1432 1433 1433 1434 1434 1434 1435 1435 1436 1437 1437 1437 1438 1438 1439 1439 1439 1440 1440 1440 1441 1441 1441 1441 1441 1441 1442 1442 1442
1426 1426 1426 1425 1426 1426 1427 1427 1427 1427 1427 1428 1428 1428 1428 1429 1429 1429 1430 1430 1430 1430 1430 1430 1430 1430 1430 1430 1430 1429 1430 1430 1430 1430 1430 1430 1430 1431 1431 1431 1432 1432 1432 1433 1433 1434 1434 1434 1434 1435 1435 1436 1437 1437 1437 1438 1438 1438 1439 1439 1439 1439 1439 1439 1439 1439 1440 1440 1440
1428 1427 1427 1427 1427 1427 1428 1428 1429 1429 1429 1429 1429 1429 1429 1430 1430 1430 1430 1431 1431 1431 1431 1432 1432 1431 1431 1431 1430 1430 1430 1430 1430 1430 1430 1430 1430 1431 1431 1431 1431 1431 1432 1432 1432 1433 1433 1434 1434 1434 1435 1435 1435 1436 1436 1437 1437 1437 1437 1437 1437 1437 1437 1438 1438 1438 1438 1438 1439
1429 1429 1429 1428 1429 1429 1429 1430 1430 1430 1430 1430 1430 1430 1430 1430 1431 1431 1431 1431 1432 1432 1432 1432 1432 1432 1432 1431 1431 1431 1431 1430 1430 1430 1430 1430 1430 1430 1430 1430 1430 1431 1431 1431 1432 1432 1433 1433 1433 1434 1434 1434 1434 1435 1435 1435 1435 1435 1436 1436 1436 1436 1436 1436 1436 1437 1437 1437 1437
1431 1431 1431 1431 1431 1431 1431 1432 1432 1432 1432 1431 1431 1431 1431 1431 1431 1431 1431 1432 1432 1432 1432 1432 1432 1432 1432 1431 1431 1431 1431 1431 1430 1430 1430 1430 1430 1430 1430 1430 1430 1430 1430 1430 1431 1431 1432 1432 1432 1432 1433 1433 1433 1434 1434 1434 1434 1434 1434 1434 1434 1434 1434 1434 1434 1434 1434 1435 1435
1432 1432 1432 1432 1433 1433 1433 1433 1433 1433 1433 1432 1432 1432 1432 1432 1432 1432 1432 1432 1432 1432 1432 1432 1432 1432 1431 1431 1431 1431 1431 1431 1431 1430 1430 1430 1430 1430 1430 1430 1430 1430 1430 1430 1430 1430 1431 1431 1431 1431 1432 1432 1432 1432 1433 1432 1432 1432 1432 1432 1432 1432 1432 1432 1432 1432 1432 1432 1432
1435 1434 1434 1434 1434 1434 1434 1434 1434 1434 1433 1433 1433 1433 1433 1433 1433 1433 1433 1433 1433 1433 1432 1432 1432 1432 1431 1431 1431 1431 1431 1430 1430 1430 1430 1430 1430 1430 1430 1430 1430 1430 1430 1430 1430 1430 1430 1430 1430 1431 1431 1431 1431 1431 1431 1431 1431 1431 1431 1431 1430 1430 1430 1430 1430 1430 1430 1430 1430
1437 1436 1436 1436 1436 1436 1435 1435 1435 1434 1434 1434 1434 1434 1434 1434 1434 1434 1434 1434 1433 1433 1433 1433 1432 1432 1432 1431 1431 1430 1430 1430 1430 1430 1430 1430 1430 1430 1430 1430 1430 1430 1430 1430 1430 1430 1430 1430 1430 1430 1430 1430 1430 1430 1430 1430 1429 1429 1429 1428 1428 1428 1428 1428 1428 1428 1427 1428 1428
1438 1438 1437 1437 1437 1437 1437 1436 1436 1436 1435 1435 1435 1435 1434 1434 1434 1434 1434 1434 1434 1433 1433 1433 1433 1432 1432 1431 1431 1430 1430 1430 1429 1429 1429 1429 1429 1429 1429 1429 1429 1429 1430 1430 1429 1429 1429 1429 1429 1429 1428 1428 1428 1428 1428 1428 1428 1427 1427 1427 1426 1426 1426 1425 1425 1425 1425 1425 1425
1439 1439 1438 1438 1438 1438 1437 1437 1437 1437 1437 1436 1436 1436 1435 1435 1435 1435 1434 1434 1434 1433 1433 1433 1432 1432 1431 1431 1431 1430 1430 1429 1429 1429 1429 1428 1428 1428 1428 1428 1428 1428 1428 1428 1428 1428 1428 1428 1428 1427 1427 1427 1427 1426 1426 1426 1426 1425 1425 1425 1424 1424 1423 1423 1422 1422 1422 1422 1423
1440 1440 1439 1439 1439 1438 1438 1438 1438 1437 1437 1437 1437 1436 1436 1436 1436 1435 1434 1434 1433 1433 1432 1432 1431 1431 1430 1430 1430 1429 1429 1429 1429 1429 1428 1428 1428 1428 1428 1427 1427 1427 1427 1427 1427 1427 1427 1426 1426 1426 1425 1425 1424 1424 1424 1423 1423 1423 1422 1422 1422 1422 1421 1420 1420 1420 1420 1420 1420
1441 1440 1440 1439 1439 1439 1438 1438 1438 1437 1437 1437 1437 1437 1437 1436 1436 1435 1435 1434 1433 1433 1432 1431 1431 1430 1430 1429 1428 1428 1428 1428 1427 1427 1427 1428 1428 1427 1427 1427 1427 1427 1427 1426 1426 1426 1425 1425 1425 1424 1424 1423 1422 1422 1422 1421 1421 1420 1420 1419 1419 1419 1418 1418 1417 1417 1417 1417 1417
1441 1440 1440 1439 1439 1439 1438 1438 1437 1437 1437 1437 1437 1436 1436 1436 1435 1434 1434 1433 1433 1432 1432 1431 1431 1430 1429 1428 1428 1427 1427 1427 1427 1426 1426 1426 1426 1426 1426 1426 1426 1426 1426 1425 1425 1424 1424 1424 1423 1423 1422 1421 1421 1420 1419 1419 1418 1418 1417 1417 1416 1416 1415 1415 1415 1415 1415 1415 1415
1441 1440 1440 1440 1439 1438 1438 1438 1437 1437 1437 1436 1436 1436 1435 1434 1434 1433 1432 1432 1432 1431 1431 1430 1430 1429 1429 1428 1427 1427 1427 1426 1426 1426 1425 1425 1425 1425 1425 1425 1424 1424 1424 1424 1423 1423 1422 1422 1422 1421 1420 1420 1419 1418 1417 1417 1416 1415 1415 1414 1413 1413 1413 1412 1412 1412 1412 1412 1412
1441 1441 1440 1440 1439 1439 1438 1438 1437 1437 1437 1436 1435 1435 1434 1433 1433 1432 1432 1431 1431 1430 1429 1429 1428 1427 1427 1427 1427 1426 1426 1426 1425 1425 1425 1424 1424 1424 1423 1423 1423 1422 1422 1422 1421 1421 1421 1420 1420 1419 1418 1417 1417 1416 1415 1414 1413 1412 1412 1412 1411 1411 1410 1410 1410 1410 1410 1410 1410
1442 1441 1440 1440 1439 1439 1438 1438 1437 1437 1437 1436 1435 1434 1434 1433 1432 1432 1431 1430 1429 1429 1428 1427 1426 1426 1425 1425 1425 1424 1424 1424 1424 1424 1423 1423 1423 1423 1422 1422 1422 1421 1421 1420 1419 1419 1418 1418 1417 1417 1416 1415 1414 1413 1412 1412 1411 1410 1409 1409 1408 1408 1408 1407 1407 1407 1407 1407 1407
1442 1441 1441 1440 1439 1439 1438 1438 1437 1437 1436 1436 1435 1434 1433 1432 1432 1431 1431 1430 1429 1428 1427 1427 1426 1426 1425 1424 1424 1423 1423 1423 1423 1422 1422 1422 1421 1421 1421 1421 1420 1420 1419 1418 1418 1417 1417 1416 1415 1414 1413 1412 1411 1410 1409 1409 1408 1407 1407 1406 1406 1406 1405 1405 1405 1405 1405 1405 1405
1442 1442 1441 1440 1440 1439 1438 1438 1437 1437 1436 1435 1435 1434 1433 1432 1432 1431 1430 1430 1429 1429 1428 1427 1427 1426 1426 1425 1424 1423 1423 1422 1422 1421 1421 1420 1419 1419 1419 1419 1418 1418 1417 1417 1416 1415 1415 1414 1413 1412 1410 1409 1408 1407 1406 1405 1405 1404 1404 1403 1403 1403 1403 1403 1402 1402 1402 1402 1402
1442 1442 1441 1440 1440 1439 1438 1437 1437 1436 1435 1435 1434 1433 1432 1432 1431 1430 1430 1429 1429 1428 1428 1427 1427 1426 1426 1425 1424 1423 1422 1422 1421 1420 1419 1418 1418 1417 1417 1416 1416 1416 1415 1414 1414 1413 1412 1412 1411 1409 1408 1407 1406 1405 1404 1403 1402 1401 1401 1400 1400 1400 1400 1400 1400 1400 1400 1400 1400
1442 1442 1441 1440 1440 1439 1438 1437 1437 1436 1435 1434 1433 1432 1432 1431 1430 1429 1428 1427 1427 1427 1426 1426 1425 1424 1424 1424 1423 1422 1422 1421 1420 1419 1418 1417 1416 1415 1414 1414 1414 1413 1413 1412 1411 1410 1410 1409 1408 1407 1406 1404 1403 1402 1401 1400 1399 1398 1398 1397 1397 1397 1397 1397 1397 1397 1397 1397 1397
1443 1442 1442 1441 1440 1439 1438 1437 1437 1436 1435 1434 1433 1432 1431 1430 1429 1428 1427 1426 1425 1424 1424 1423 1422 1422 1421 1421 1421 1420 1420 1419 1418 1417 1416 1415 1414 1413 1413 1412 1412 1411 1411 1410 1409 1408 1407 1407 1406 1405 1403 1402 1401 1400 1399 1398 1397 1396 1395 1395 1394 1394 1393 1393 1393 1393 1393 1394 1394
1444 1443 1442 1442 1441 1440 1439 1438 1437 1436 1435 1434 1433 1432 1431 1430 1429 1428 1427 1426 1425 1424 1423 1422 1421 1420 1419 1418 1417 1417 1416 1415 1415 1414 1413 1412 1412 1411 1410 1409 1409 1409 1408 1408 1407 1406 1405 1404 1403 1402 1401 1400 1398 1397 1396 1395 1394 1393 1393 1392 1392 1391 1391 1390 1390 1390 1390 1390 1390
1445 1444 1443 1442 1442 1441 1440 1439 1438 1437 1436 1435 1434 1433 1432 1431 1430 1429 1428 1427 1426 1424 1423 1422 1421 1419 1418 1417 1415 1414 1413 1412 1412 1411 1409 1409 1408 1407 1407 1406 1406 1405 1405 1405 1405 1404 1403 1403 1402 1401 1400 1398 1397 1395 1394 1393 1392 1391 1390 1390 1389 1388 1387 1387 1387 1387 1387 1387 1387
1446 1445 1444 1443 1442 1442 1441 1440 1439 1438 1437 1436 1435 1434 1433 1432 1431 1430 1429 1427 1426 1425 1423 1422 1421 1419 1418 1417 1415 1414 1412 1411 1410 1409 1407 1406 1405 1404 1403 1402 1402 1401 1401 1401 1401 1401 1400 1400 1399 1399 1398 1397 1395 1394 1392 1391 1390 1389 1388 1387 1387 1386 1385 1384 1384 1384 1384 1383 1383